#timestamp,LO_Frequency,Hit,StdDev 
1618075555.8,286047016.7,P
1618075575.7,286047014.2,P
1618075595.5,286047016.8,P
1618075615.3,286047014.5,Y
1618075635.2,286046998.5,P
1618075655.0,286047000.5,N
1618075655.9,286047000.5,N
1618075675.7,286047000.5,N
1618075695.6,286047000.3,N
1618075715.4,286047000.7,N
1618075735.3,286047001.6,N
1618075755.1,286047002.3,N
1618075756.0,286047002.3,N
1618075775.8,286047002.1,N
1618075795.7,286046999.7,N
1618075815.5,286047002.2,N
1618075835.3,286047002.6,N
1618075855.2,286047002.2,N
1618075875.0,286047001.5,N
1618075875.9,286047001.5,N
1618075895.8,286047003.9,N
1618075915.6,286047004.2,N
1618075935.4,286047004.0,N
1618075955.3,286047004.4,N
1618075975.1,286047003.9,N
1618075995.9,286047003.1,N
1618076015.7,286047003.4,N
1618076035.5,286047003.4,N
1618076055.4,286047003.6,N
1618076075.2,286047003.5,N
1618076095.0,286047003.9,N
1618076095.9,286047003.9,N
1618076115.8,286047005.5,N
1618076135.6,286047005.5,N
1618076155.5,286047005.2,Y
1618076175.3,286047003.3,P
1618076195.1,286047003.4,P
1618076215.9,286047001.9,P
1618076235.7,286047003.6,Y
1618076255.5,286047002.1,P
1618076275.4,286047002.2,P
1618076295.2,286047001.7,P
1618076315.1,286047001.4,Y
1618076316.0,286047001.4,P
1618076335.8,286047000.4,N
1618076355.6,286047002.7,P
1618076375.5,286047002.1,N
1618076395.3,286046999.9,N
1618076415.1,286046999.8,N
1618076435.9,286047000.0,N
1618076455.7,286047001.5,N
1618076475.6,286047002.2,N
1618076495.4,286047003.7,Y
1618076515.2,286047002.3,P
1618076535.1,286047002.2,P
1618076536.0,286047002.2,P
1618076555.8,286047001.5,Y
1618076575.7,286047002.7,P
1618076595.5,286047000.4,N
1618076615.3,286046998.2,N
1618076635.2,286047001.1,N
1618076655.0,286046999.8,N
1618076655.9,286046999.8,N
1618076675.7,286047001.0,N
1618076695.6,286047000.4,N
1618076715.4,286047002.6,N
1618076735.3,286047002.8,N
1618076755.1,286047002.2,N
1618076756.0,286047002.2,N
1618076775.8,286047005.9,Y
1618076795.7,286047003.2,P
1618076815.5,286047003.5,P
1618076835.3,286047004.3,P
1618076855.2,286047003.5,Y
1618076875.0,286047000.5,P
1618076875.9,286047000.5,N
1618076895.8,286047000.4,N
1618076915.6,286046998.2,N
1618076935.4,286046998.2,N
1618076955.3,286047000.5,N
1618076975.1,286046998.1,N
1618076995.9,286047001.1,N
1618077015.7,286047002.7,N
1618077035.5,286047002.4,N
1618077055.4,286046999.9,N
1618077075.2,286046999.9,N
1618077095.0,286047002.8,N
1618077095.9,286047002.8,N
1618077115.8,286047002.5,N
1618077135.6,286047002.6,N
1618077155.5,286047001.3,N
1618077175.3,286047001.3,N
1618077195.1,286047003.6,N
1618077215.9,286047003.2,N
1618077235.7,286047005.5,Y
1618077255.5,286047001.4,P
1618077275.4,286047005.9,P
1618077295.2,286047005.2,N
1618077315.1,286047003.2,N
1618077316.0,286047003.2,N
1618077335.8,286047005.5,Y
1618077355.6,286047002.7,P
1618077375.5,286047002.2,P
1618077395.3,286047002.0,P
1618077415.2,286047004.0,Y
1618077435.9,286047000.6,P
1618077455.7,286047000.3,N
1618077475.6,286047000.0,N
1618077495.4,286047000.3,N
1618077515.2,286046999.7,N
1618077535.1,286047002.8,N
1618077536.0,286047002.8,N
1618077555.8,286047002.6,N
1618077575.7,286047000.1,N
1618077595.5,286047000.2,N
